This demonstration page uses our WeatherBlox Daily Observations layout. Learn more.

Left ArrowRight Arrow

41.86663, -103.66717

Hourly Observations for June 24, 2021

Temp ( °F °C ) Dew Point ( °F °C ) Humidity (%) Winds ( mph kmh ) Pressure ( in mb ) Visibility ( mi km ) Precip ( " mm )
12:53 am 00:53 Clear 72 22.2 47 8.3 41 41 WNW 8 13 29.74 1007 10 16 N/A
1:53 am 01:53 Clear 76 24.4 46 7.8 35 35 N 7 11 29.72 1007 10 16 N/A
2:53 am 02:53 Clear 77 25 45 7.2 32 32 NW 7 11 29.76 1008 10 16 N/A
3:53 am 03:53 Clear 73 22.8 48 8.9 41 41 N N/A 29.77 1008 10 16 N/A
4:53 am 04:53 Clear 72 22.2 51 10.6 48 48 N 5 7 29.81 1009 10 16 N/A
5:53 am 05:53 Sunny 71 21.7 52 11.1 51 51 E 5 7 29.83 1010 10 16 N/A
6:53 am 06:53 Sunny 70 21.1 54 12.2 57 57 ENE 6 9 29.83 1010 10 16 N/A
7:53 am 07:53 Sunny 74 23.3 54 12.2 50 50 NE 10 17 29.84 1011 10 16 N/A
8:53 am 08:53 Sunny 76 24.4 52 11.1 43 43 E 8 13 29.84 1011 10 16 N/A
9:53 am 09:53 Sunny 78 25.6 51 10.6 39 39 E 13 20 29.84 1011 10 16 N/A
10:53 am 10:53 Sunny 82 27.8 52 11.1 35 35 E 12 19 29.84 1011 10 16 N/A
11:53 am 11:53 Sunny 84 28.9 51 10.6 32 32 ESE 16 26 29.83 1010 10 16 N/A
12:53 pm 12:53 Sunny 86 30 54 12.2 33 33 E 15 24 29.82 1010 10 16 N/A
1:53 pm 13:53 Sunny 87 30.6 54 12.2 32 32 ESE 13 20 29.78 1009 10 16 N/A
2:53 pm 14:53 Sunny 89 31.7 47 8.3 23 23 SE 10 17 29.76 1008 10 16 N/A
3:53 pm 15:53 Sunny 88 31.1 48 8.9 25 25 E 10 17 29.74 1007 10 16 N/A
4:53 pm 16:53 Sunny 87 30.6 49 9.4 27 27 ESE 13 20 29.73 1007 10 16 N/A
5:53 pm 17:53 Sunny 85 29.4 51 10.6 31 31 ESE 14 22 29.74 1007 10 16 N/A
6:53 pm 18:53 Sunny 84 28.9 52 11.1 33 33 ESE 10 17 29.75 1007 10 16 N/A
7:53 pm 19:53 Sunny 81 27.2 53 11.7 38 38 SE 8 13 29.77 1008 10 16 N/A
8:50 pm 20:50 Cloudy with Nearby Thunderstorms 73 23 54 12 50 50 NW 22 35 29.73 1007 9 14 N/A
8:53 pm 20:53 Cloudy with Nearby Thunderstorms 73 22.8 53 11.7 50 50 NNW 22 35 29.81 1010 9 14 N/A
9:05 pm 21:05 Cloudy with Nearby Thunderstorms 66 18.9 56 13.3 70 70 N 23 37 29.80 1009 10 16 0.00 0.00
9:31 pm 21:31 Cloudy with Thunderstorms 63 17.2 57 13.9 81 81 N 18 30 29.85 1011 5 8 0.03 0.76
9:53 pm 21:53 Windy with Storms Likely 62 16.7 58 14.4 86 86 N 24 39 29.91 1013 8 13 0.08 2.03
10:01 pm 22:01 Cloudy with Light Rain 62 16.7 58 14.4 86 86 N 23 37 29.90 1012 5 8 0.01 0.25
10:12 pm 22:12 Cloudy with Heavy Rain 61 16 59 15 94 94 N 28 44 29.90 1012 3 4 N/A
10:20 pm 22:20 Cloudy with Light Rain 62 16.7 58 14.4 86 86 NNE 24 39 29.89 1012 6 10 0.14 3.56
10:53 pm 22:53 Cloudy with Light Rain 62 16.7 58 14.4 86 86 NNE 21 33 29.88 1012 10 16 0.16 4.06
11:53 pm 23:53 Mostly Clear 63 17.2 56 13.3 78 78 NNE 17 28 29.87 1011 10 16 0.00 0.00

Powered by AerisWeather